This is the latest recevied weather packets stored in our database for station/object NK7I. If no packets are shown the sender has not sent any weather packets the latest 1 day(s).
| Time | Temp. | Humidity | Pressure | Rain* | Wind** | Luminosity | Snow |
|---|---|---|---|---|---|---|---|
| 1778004683 | 18.89° C | 33% | 1013.5 hPa | 0 mm | 1.34 m/s, 314° | 1204 W/m² | - |
| 1778004383 | 18.89° C | 35% | 1013.5 hPa | 0 mm | 0.89 m/s, 7° | 1194 W/m² | - |
| 1778004083 | 18.89° C | 38% | 1013.6 hPa | 0 mm | 0.89 m/s, 345° | 1183 W/m² | - |
| 1778003783 | 18.89° C | 36% | 1013.7 hPa | 0 mm | 0.89 m/s, 302° | 1172 W/m² | - |
| 1778003483 | 18.33° C | 35% | 1013.6 hPa | 0 mm | 0.89 m/s, 282° | 1164 W/m² | - |
| 1778003183 | 18.33° C | 37% | 1013.7 hPa | 0 mm | 0.89 m/s, 276° | 1153 W/m² | - |
| 1778002883 | 18.33° C | 38% | 1013.9 hPa | 0 mm | 0.45 m/s, 283° | 1139 W/m² | - |
| 1778002583 | 17.78° C | 40% | 1013.9 hPa | 0 mm | 0.45 m/s, 349° | 1125 W/m² | - |
| 1778002283 | 17.22° C | 38% | 1014 hPa | 0 mm | 0.89 m/s, 350° | 1116 W/m² | - |
| 1778001983 | 17.22° C | 41% | 1014.1 hPa | 0 mm | 0.89 m/s, 25° | 1097 W/m² | - |
| 1778001683 | 16.67° C | 40% | 1014.1 hPa | 0 mm | 1.79 m/s, 53° | 1088 W/m² | - |
| 1778001383 | 16.67° C | 40% | 1014.2 hPa | 0 mm | 1.79 m/s, 52° | 1076 W/m² | - |
| 1778001083 | 16.67° C | 41% | 1014.2 hPa | 0 mm | 1.34 m/s, 42° | 1058 W/m² | - |
| 1778000783 | 16.67° C | 42% | 1014.2 hPa | 0 mm | 0.45 m/s, 33° | 1044 W/m² | - |
| 1778000483 | 16.67° C | 48% | 1014.2 hPa | 0 mm | 0.89 m/s, 35° | 1025 W/m² | - |
| 1778000183 | 16.67° C | 41% | 1014.3 hPa | 0 mm | 1.34 m/s, 34° | 1011 W/m² | - |
| 1777999883 | 16.11° C | 42% | 1014.3 hPa | 0 mm | 0.89 m/s, 33° | 990 W/m² | - |
| 1777999583 | 16.11° C | 43% | 1014.3 hPa | 0 mm | 0.45 m/s, 33° | 974 W/m² | - |
| 1777999283 | 16.11° C | 46% | 1014.3 hPa | 0 mm | 0.89 m/s, 33° | 958 W/m² | - |
| 1777998983 | 15.56° C | 45% | 1014.4 hPa | 0 mm | 0.89 m/s, 33° | 942 W/m² | - |
| 1777998683 | 15.56° C | 48% | 1014.5 hPa | 0 mm | 0.89 m/s, 33° | 925 W/m² | - |
| 1777998383 | 15.56° C | 50% | 1014.5 hPa | 0 mm | 0.45 m/s, 32° | 905 W/m² | - |
| 1777998083 | 15.56° C | 49% | 1014.5 hPa | 0 mm | 0.45 m/s, 32° | 861 W/m² | - |
| 1777997783 | 15° C | 51% | 1014.5 hPa | 0 mm | 0.89 m/s, 27° | 761 W/m² | - |
| 1777997483 | 15° C | 46% | 1014.5 hPa | 0 mm | 0.89 m/s, 23° | 628 W/m² | - |
* Rain latest hour (hover to see other rain measurements)
** Current wind speed in m/s (hover to see current wind gust speed)